{"data":{"norad_id":63430,"epoch":"2026-09-22T18:34:55.041024Z","epoch_age_seconds":109764,"freshness":"FRESH","line1":"1 63430U 25067C   26265.77424816  .00008784  00000+0  42558-3 0  9999","line2":"2 63430  55.0023 321.2484 0005042 180.4099 179.6917 15.19309118 82760","mean_motion":15.19309118,"eccentricity":0.0005042,"inclination_deg":55.0023,"raan_deg":321.2484,"arg_perigee_deg":180.4099,"mean_anomaly_deg":179.6917,"bstar":0.00042558,"rev_number":8276,"period_min":94.779922198821,"perigee_km":504.4554225399,"apogee_km":511.39932985686,"semimajor_km":6886.0643761984,"source":"CELESTRAK","updated_at":"2026-09-23T09:00:22.082487Z"}}